Hourly Data Report for November 29, 2017

All times are specified in Local Standard Time (LST). Add 1 hour to adjust for Daylight Saving Time where and when it is observed.

GIMLI CLIMATE
MANITOBA

50°38'00.000" N
97°03'00.000" W
230.10 m
5031042
71748
PGH

Download Data

Hourly Data (November 2017)
Hourly Data Report for November 29, 2017
Temp Definition
°C
Dew Point Temp Definition
°C
Rel Hum Definition
%
Wind Dir Definition
10's deg

Wind Spd Definition
km/h
Visibility Definition
km
Stn Press Definition
kPa
Hmdx Definition


Wind Chill Definition


Weather Definition


TIME
00:00 -12.2 -15.3 78 18 17   99.13   -20 LegendNANA
01:00 -10.5 -13.7 77 18 17   99.07   -18 LegendNANA
02:00 -9.0 -12.4 77 18 20   98.93   -17 LegendNANA
03:00 -7.2 -10.9 75 18 21   98.84   -15 LegendNANA
04:00 -5.6 -9.6 73 18 22   98.69   -13 LegendNANA
05:00 -4.4 -8.5 73 18 22   98.61   -11 LegendNANA
06:00 -3.4 -7.8 72 18 26   98.47   -10 LegendNANA
07:00 -2.3 -7.1 70 18 26   98.35   -9 LegendNANA
08:00 -1.8 -6.8 68 18 30   98.25   -9 LegendNANA
09:00 -0.8 -6.6 65 17 28   98.10   -7 LegendNANA
10:00 0.0 -6.3 62 16 22   98.04   -6 LegendNANA
11:00 1.7 -6.3 56 17 31   97.79     LegendNANA
12:00 2.5 -5.9 54 17 38   97.62     LegendNANA
13:00 2.5 -5.6 55 17 28   97.43     LegendNANA
14:00 2.0 -4.9 60 18 31   97.33     LegendNANA
15:00 2.1 -4.0 64 19 25   97.20     LegendNANA
16:00 2.0 -3.6 67 19 18   97.14     LegendNANA
17:00 1.1 -3.1 73 20 10   97.09     LegendNANA
18:00 2.0 -3.3 68 25 19   97.10     LegendNANA
19:00 -0.1 -1.1 93 30 15   97.16   -5 LegendNANA
20:00 0.0 -0.8 94 30 22   97.22   -6 LegendNANA
21:00 -0.2 -1.3 92 30 24   97.36   -6 LegendNANA
22:00 0.4 -1.7 86 30 28   97.49     LegendNANA
23:00 -1.3 -4.9 76 31 35   97.62   -9 LegendNANA

Notes on Data Quality.

Legend

  • E = Estimated
  • M = Missing
  • NA = Not Available
  • ‡ = Partner data that is not subject to review by the National Climate Archives
Date modified: